KC4YVV-22 Weather Reports


time (UTC)temp
C
wind
direction
speed
KPH
gust
KPH
rain 1hr
cm
rain 24hr
cm
rain mn
cm
humidity
%
barometer
mb
20260505224535 25 0 1.6 11.3 0.00 0.00 0.00 37 1011.6
20260505223040 25 307 0.0 11.3 0.00 0.00 0.00 34 1011.5
20260505221534 25 0 0.0 9.7 0.00 0.00 0.00 33 1011.7
20260505220033 25 311 1.6 11.3 0.00 0.00 0.00 34 1011.8
20260505214539 25 24 4.8 22.5 0.00 0.00 0.00 34 1011.8
20260505213030 26 0 4.8 17.7 0.00 0.00 0.00 36 1011.7
20260505211530 26 8 1.6 12.9 0.00 0.00 0.00 35 1011.8
20260505210033 26 0 0.0 16.1 0.00 0.00 0.00 35 1012.1
20260505204532 27 285 0.0 11.3 0.00 0.00 0.00 35 1012.2
20260505203031 26 0 0.0 12.9 0.00 0.00 0.00 34 1012.4
20260505201535 26 29 4.8 11.3 0.00 0.00 0.00 34 1012.4
20260505200035 26 224 1.6 11.3 0.00 0.00 0.00 39 1012.5
20260505194535 25 0 0.0 11.3 0.00 0.00 0.00 39 1012.7
20260505193034 25 274 4.8 9.7 0.00 0.00 0.00 39 1012.9
20260505191536 24 285 3.2 6.4 0.00 0.00 0.00 41 1013.1
20260505190045 25 134 1.6 6.4 0.00 0.00 0.00 39 1013.6
20260505184536 25 0 1.6 9.7 0.00 0.00 0.00 40 1013.8
20260505183043 24 0 0.0 12.9 0.00 0.00 0.00 40 1014.3
20260505181532 24 331 1.6 6.4 0.00 0.00 0.00 44 1014.4
20260505180032 23 275 1.6 8.0 0.00 0.00 0.00 43 1014.7
20260505174536 23 0 1.6 9.7 0.00 0.00 0.00 45 1015.0
20260505173043 24 0 1.6 9.7 0.00 0.00 0.00 46 1015.3
20260505171536 23 0 0.0 4.8 0.00 0.00 0.00 49 1015.4
20260505170035 23 0 0.0 9.7 0.00 0.00 0.00 49 1015.7
20260505164531 23 271 0.0 8.0 0.00 0.00 0.00 49 1015.6
20260505163031 23 0 0.0 8.0 0.00 0.00 0.00 49 1015.7
20260505161532 23 230 3.2 12.9 0.00 0.00 0.00 46 1015.7
20260505153039 21 288 1.6 8.0 0.00 0.00 0.00 52 1015.6
20260505151535 21 277 0.0 6.4 0.00 0.00 0.00 55 1015.9
20260505124532 13 0 0.0 0.0 0.00 0.00 0.00 77 1015.7
20260505123032 12 0 0.0 0.0 0.00 0.00 0.00 73 1015.6
20260505121532 11 0 0.0 0.0 0.00 0.00 0.00 72 1015.5
20260505120038 10 0 0.0 0.0 0.00 0.00 0.00 73 1015.3
20260505114535 10 0 0.0 0.0 0.00 0.00 0.00 74 1015.2
20260505113032 9 0 0.0 0.0 0.00 0.00 0.00 75 1014.9
20260505111534 9 0 0.0 0.0 0.00 0.00 0.00 76 1014.7
20260505101529 9 0 0.0 0.0 0.00 0.00 0.00 78 1014.7
20260505100032 9 0 0.0 0.0 0.00 0.00 0.00 78 1014.8
20260505094531 9 0 0.0 0.0 0.00 0.00 0.00 79 1014.5
20260505093032 9 0 0.0 0.0 0.00 0.00 0.00 79 1014.5
20260505091530 9 0 0.0 0.0 0.00 0.00 0.00 80 1014.5
20260505090036 9 0 0.0 0.0 0.00 0.00 0.00 80 1014.5
20260505084543 10 0 0.0 0.0 0.00 0.00 0.00 80 1014.4
20260505083032 10 0 0.0 0.0 0.00 0.00 0.00 81 1014.5
20260505081532 10 0 0.0 0.0 0.00 0.00 0.00 81 1014.4
20260505080037 10 0 0.0 0.0 0.00 0.00 0.00 81 1014.4
20260505074535 10 0 0.0 0.0 0.00 0.00 0.00 82 1014.4
20260505073041 10 0 0.0 0.0 0.00 0.00 0.00 82 1014.5
20260505071530 10 0 0.0 0.0 0.00 0.00 0.00 82 1014.6
20260505070040 11 0 0.0 0.0 0.00 0.00 0.00 82 1014.7
20260505064534 11 0 0.0 0.0 0.00 0.00 0.00 82 1014.7
20260505063032 11 0 0.0 0.0 0.00 0.00 0.00 83 1014.6
20260505061540 11 0 0.0 0.0 0.00 0.00 0.00 83 1014.7
20260505060035 11 0 0.0 0.0 0.00 0.00 0.00 83 1014.6
20260505054538 11 0 0.0 0.0 0.00 0.00 0.00 83 1014.6
20260505053032 11 0 0.0 0.0 0.00 0.00 0.00 83 1014.4
20260505051531 11 0 0.0 0.0 0.00 0.00 0.00 83 1014.3
20260505041549 12 0 0.0 0.0 0.00 0.00 0.00 83 1014.3
20260505040040 12 0 0.0 0.0 0.00 0.00 0.00 83 1014.3
20260505034532 12 0 0.0 0.0 0.00 0.00 0.00 83 1014.2
20260505033034 12 0 0.0 0.0 0.00 0.00 0.00 82 1014.3
20260505031539 12 0 0.0 0.0 0.00 0.00 0.00 82 1014.4
20260505030032 13 0 0.0 0.0 0.00 0.00 0.00 82 1014.4
20260505024533 13 0 0.0 0.0 0.00 0.00 0.00 81 1014.5
20260505023031 13 0 0.0 0.0 0.00 0.00 0.00 80 1014.5
20260505021534 14 0 0.0 0.0 0.00 0.00 0.00 79 1014.4
20260505020031 15 0 0.0 0.0 0.00 0.00 0.00 77 1014.5
20260505014546 15 0 0.0 0.0 0.00 0.00 0.00 76 1014.3
20260505013033 16 0 0.0 0.0 0.00 0.00 0.00 75 1014.2
20260505011530 16 0 0.0 0.0 0.00 0.00 0.00 72 1014.0
20260505010031 17 0 0.0 0.0 0.00 0.00 0.00 69 1013.9
20260505004537 18 0 0.0 0.0 0.00 0.00 0.00 66 1013.6
20260505003031 19 0 0.0 0.0 0.00 0.00 0.00 63 1013.6
20260505001534 20 0 0.0 0.0 0.00 0.00 0.00 59 1013.4
20260505000044 21 0 0.0 0.0 0.00 0.00 0.00 55 1013.3
20260504234535 22 0 0.0 0.0 0.00 0.00 0.00 48 1013.3
20260504233043 23 0 0.0 8.0 0.00 0.00 0.00 45 1013.2
20260504231532 23 252 3.2 11.3 0.00 0.00 0.00 42 1013.1
20260504230035 23 0 0.0 9.7 0.00 0.00 0.00 42 1013.1